DELTA 1 DEB, 7156

Orbit data source: Space-Track

DELTA 1 DEB, 7156 is space debris in SSO originally from a launch on Tue, 06 Nov 1973 UTC launched from the Air Force Western Test Range (AFWTR). Debris objects in space refer to the collection of defunct objects orbiting the Earth. Examples of debris include non-operational satellites, rocket bodies, and fragments generated from explosions, collisions, or faulty payload assembly.

Loading next visibility...
Identifier
7156, 1973-086DV
Orbit
SSO
Country
Flag of USUS
Related business
Manufacturer
Unknown
Mission
Spacecraft
Bus & Motor
Unknown
Mass
Unknown
Launch date (UTC)
1973-11-06 (52 years ago)
Launch vehicle
Unknown
Launch site
Air Force Western Test Range (AFWTR)
Object type
Payload
Rocket body
Debris
Shape & HBR
Unknown shape, 0.2 m
Radar Cross Section
Medium (>0.1 m² and <1 m²)

Expand to show TLE details & history
Last TLE update: 19 hours ago

TLE from 19 hours ago
0 DELTA 1 DEB
1 07156U 73086DV  25292.25832068 -.00000089  00000-0 -47518-3 0  9994
2 07156 102.0219 174.1643 0136737 259.4067 220.4828 12.14437112303246
Epoch: 2025-10-19T06:11Z
TLE epoch observation values (Epoch: 2025-10-19T06:11:58.906Z)
Latitude
59.00251°
Longitude
-106.15225°
Altitude
1,710.424 km
Speed
6.99 km/s
True Right ascension
00h 59m 16s
True Declination
58° 52' 06"
Sunlit
Object was in full shadow at epoch
Visualization orbit readout
Latitude
Unknown
Longitude
Unknown
Altitude
Unknown
Speed
Unknown
Apparent Right ascension
Unknown
Apparent Declination
Unknown
Sunlit
N/A
Visualization observer readout
Local Sidereal Time
20:11:55
Azimuth
Unknown
Elevation
Unknown
Doppler factor
Unknown
Orbital elements
Apogee altitude
1,723.761 km
Perigee altitude
1,505.184 km
Semi-major axis
7,992.609 km
Eccentricity
0.01367
Inclination
102.0219°
RAAN
174.1643°
Arg. of periapsis
259.4067°
True anomaly
219.47866°
Mean anomaly
220.4828°
Eccentric anomaly
219.97943°
Mean motion
3.03746 °/min
Orbital period
118.52 mins
BSTAR
-0.00047518
Loading maneuver chart data...
Computing Atmospheric mass density...
Loading historical data...
Loading historical data...
Loading historical data...
Loading historical data...
Loading historical data...
Loading historical data...
Loading historical data...

Documentation

Showing up to 5 results
|